This demonstration page uses our WeatherBlox Daily Observations layout. Learn more.

Left ArrowRight Arrow

34.74481, -87.66753

Hourly Observations for June 16, 2019

Temp ( °F °C ) Dew Point ( °F °C ) Humidity (%) Winds ( mph kmh ) Pressure ( in mb ) Visibility ( mi km ) Precip ( " mm )
12:53 am 00:53 Clear 76 24.4 65 18.3 69 69 SSE 3 6 29.96 1015 10 16 0.00 0.00
1:53 am 01:53 Clear 74 23.3 65 18.3 74 74 SE 5 7 29.96 1015 10 16 0.00 0.00
2:53 am 02:53 Clear 75 23.9 65 18.3 71 71 S 6 9 29.95 1014 10 16 0.00 0.00
3:53 am 03:53 Clear 75 23.9 66 18.9 74 74 SSW 7 11 29.96 1015 10 16 0.00 0.00
4:53 am 04:53 Clear 74 23.3 67 19.4 79 79 S 5 7 29.96 1015 10 16 0.00 0.00
5:53 am 05:53 Partly Cloudy 74 23.3 69 20.6 85 85 S 3 6 29.98 1015 10 16 0.00 0.00
6:53 am 06:53 Mostly Cloudy 76 24.4 70 21.1 82 82 S 5 7 30.00 1016 10 16 0.00 0.00
7:53 am 07:53 Mostly Cloudy 80 26.7 71 21.7 74 74 SW 10 17 30.02 1017 10 16 0.00 0.00
8:13 am 08:13 Cloudy 81 27.2 71 21.7 72 72 SW 9 15 30.01 1016 10 16 0.00 0.00
8:53 am 08:53 Cloudy 82 27.8 72 22.2 72 72 WSW 9 15 30.02 1017 10 16 0.00 0.00
9:53 am 09:53 Cloudy 84 28.9 71 21.7 65 65 SW 10 17 30.01 1016 10 16 0.00 0.00
10:53 am 10:53 Cloudy 86 30 71 21.7 61 61 SW 13 20 29.99 1016 10 16 0.00 0.00
11:04 am 11:04 Cloudy 86 30 71 21.7 61 61 SW 9 15 29.98 1015 10 16 0.00 0.00
11:14 am 11:14 Mostly Cloudy 87 30.6 70 21.1 57 57 SW 8 13 29.98 1015 10 16 0.00 0.00
11:38 am 11:38 Mostly Cloudy 86 30 70 21.1 59 59 SSW 12 19 29.98 1015 10 16 0.00 0.00
11:50 am 11:50 Mostly Cloudy 88 31 70 21 55 55 SW 9 15 29.98 1015 10 16 0.00 0.00
11:53 am 11:53 Mostly Cloudy 87 30.6 70 21.1 57 57 WSW 12 19 29.98 1015 10 16 0.00 0.00
12:53 pm 12:53 Mostly Cloudy 89 31.7 69 20.6 52 52 SW 9 15 29.97 1015 10 16 0.00 0.00
1:53 pm 13:53 Partly Cloudy 91 32.8 68 20 47 47 SW 12 19 29.95 1014 10 16 0.00 0.00
2:53 pm 14:53 Mostly Sunny 90 32.2 68 20 48 48 S 10 17 29.94 1014 10 16 0.00 0.00
3:53 pm 15:53 Partly Cloudy 90 32.2 69 20.6 50 50 S 10 17 29.92 1013 10 16 0.00 0.00
4:34 pm 16:34 Partly Cloudy with Nearby Thunderstorms 88 31.1 68 20 52 52 SW 9 15 29.91 1013 10 16 0.00 0.00
4:49 pm 16:49 Partly Cloudy 88 31 70 21 55 55 WNW 9 15 29.91 1013 10 16 0.00 0.00
4:53 pm 16:53 Partly Cloudy 85 29.4 69 20.6 59 59 WNW 9 15 29.92 1013 10 16 0.00 0.00
5:34 pm 17:34 Partly Cloudy with Nearby Thunderstorms 80 26.7 69 20.6 69 69 NNE 6 9 29.91 1013 10 16 0.00 0.00
5:49 pm 17:49 Sunny 82 28 70 21 66 66 N 5 7 29.89 1012 10 16 0.00 0.00
5:53 pm 17:53 Sunny 82 27.8 69 20.6 65 65 NNE 3 6 29.90 1012 10 16 0.00 0.00
6:53 pm 18:53 Sunny 83 28.3 70 21.1 65 65 SE 5 7 29.88 1012 10 16 0.00 0.00
7:53 pm 19:53 Sunny 80 26.7 71 21.7 74 74 Calm 29.92 1013 10 16 0.00 0.00
8:53 pm 20:53 Clear 78 25.6 71 21.7 79 79 undefined N/A 29.93 1014 10 16 0.00 0.00
9:53 pm 21:53 Clear 76 24.4 71 21.7 85 85 Calm 29.95 1014 10 16 0.00 0.00
10:53 pm 22:53 Clear 75 23.9 71 21.7 88 88 SE 3 6 29.96 1015 10 16 0.00 0.00
11:53 pm 23:53 Clear 77 25 70 21.1 79 79 Calm 29.96 1014 10 16 0.00 0.00

Powered by AerisWeather